Time,TemperatureF,DewpointF,PressureIn,WindDirection,WindDirectionDegrees,WindSpeedMPH,WindSpeedGustMPH,Humidity,HourlyPrecipIn,Conditions,Clouds,dailyrainin,SoftwareType,DateUTC
2013-08-30 00:00:00,77.5,72.3,29.74,SW,233,2.0,2.0,84,0.00,,,0.00,Wunderground v.1.15,2013-08-30 05:00:00,
2013-08-30 00:05:00,77.5,72.3,29.74,SW,221,2.0,12.0,84,0.00,,,0.00,Wunderground v.1.15,2013-08-30 05:05:00,
2013-08-30 00:07:00,77.6,72.4,29.74,SW,227,2.0,12.0,84,0.00,,,0.00,Wunderground v.1.15,2013-08-30 05:07:00,
2013-08-30 00:12:00,77.6,72.0,29.74,SW,221,2.0,2.0,83,0.00,,,0.00,Wunderground v.1.15,2013-08-30 05:12:00,
2013-08-30 00:14:00,77.6,72.0,29.74,SW,222,2.0,4.0,83,0.00,,,0.00,Wunderground v.1.15,2013-08-30 05:14:00,
2013-08-30 00:16:00,77.7,72.1,29.74,SSW,197,3.0,4.0,83,0.00,,,0.00,Wunderground v.1.15,2013-08-30 05:16:00,
2013-08-30 00:18:00,77.7,72.1,29.74,WSW,238,3.0,4.0,83,0.00,,,0.00,Wunderground v.1.15,2013-08-30 05:18:00,
2013-08-30 00:20:00,77.6,72.0,29.74,SSE,152,3.0,3.0,83,0.00,,,0.00,Wunderground v.1.15,2013-08-30 05:20:00,
2013-08-30 00:24:00,77.6,72.0,29.74,East,101,3.0,3.0,83,0.00,,,0.00,Wunderground v.1.15,2013-08-30 05:24:00,
2013-08-30 00:26:00,77.5,72.3,29.74,SSW,197,3.0,3.0,84,0.00,,,0.00,Wunderground v.1.15,2013-08-30 05:26:00,
2013-08-30 00:28:00,77.4,72.2,29.74,SSW,209,3.0,3.0,84,0.00,,,0.00,Wunderground v.1.15,2013-08-30 05:28:00,
2013-08-30 00:29:00,77.4,72.2,29.74,SW,219,3.0,3.0,84,0.00,,,0.00,Wunderground v.1.15,2013-08-30 05:29:00,
2013-08-30 00:32:00,77.4,72.2,29.74,SSW,200,3.0,3.0,84,0.00,,,0.00,Wunderground v.1.15,2013-08-30 05:32:00,
2013-08-30 00:34:00,77.3,72.1,29.74,SW,232,3.0,5.0,84,0.00,,,0.00,Wunderground v.1.15,2013-08-30 05:34:00,
2013-08-30 00:40:00,77.2,72.0,29.74,SSW,201,3.0,3.0,84,0.00,,,0.00,Wunderground v.1.15,2013-08-30 05:40:00,
2013-08-30 00:42:00,77.2,72.0,29.74,SSW,200,3.0,3.0,84,0.00,,,0.00,Wunderground v.1.15,2013-08-30 05:42:00,
2013-08-30 00:44:00,77.1,72.2,29.74,SW,215,3.0,3.0,85,0.00,,,0.00,Wunderground v.1.15,2013-08-30 05:44:00,
2013-08-30 00:46:00,77.1,72.2,29.74,SSW,207,3.0,3.0,85,0.00,,,0.00,Wunderground v.1.15,2013-08-30 05:46:00,
2013-08-30 00:50:00,77.0,72.1,29.74,South,183,3.0,3.0,85,0.00,,,0.00,Wunderground v.1.15,2013-08-30 05:50:00,
2013-08-30 00:52:00,77.0,72.1,29.74,SW,215,3.0,3.0,85,0.00,,,0.00,Wunderground v.1.15,2013-08-30 05:52:00,
2013-08-30 00:54:00,76.8,71.9,29.74,SSW,195,3.0,3.0,85,0.00,,,0.00,Wunderground v.1.15,2013-08-30 05:54:00,
2013-08-30 00:56:00,76.8,71.9,29.74,SSW,201,3.0,4.0,85,0.00,,,0.00,Wunderground v.1.15,2013-08-30 05:56:00,
2013-08-30 00:58:00,76.8,71.9,29.74,SSW,207,3.0,4.0,85,0.00,,,0.00,Wunderground v.1.15,2013-08-30 05:58:00,
2013-08-30 01:02:00,76.7,72.2,29.74,SSW,197,3.0,6.0,86,0.00,,,0.00,Wunderground v.1.15,2013-08-30 06:02:00,
2013-08-30 01:04:00,76.6,72.1,29.74,SSW,193,2.0,6.0,86,0.00,,,0.00,Wunderground v.1.15,2013-08-30 06:04:00,
2013-08-30 01:06:00,76.5,72.0,29.74,SSW,208,2.0,6.0,86,0.00,,,0.00,Wunderground v.1.15,2013-08-30 06:06:00,
2013-08-30 01:08:00,76.5,72.0,29.74,SW,219,2.0,6.0,86,0.00,,,0.00,Wunderground v.1.15,2013-08-30 06:08:00,
2013-08-30 01:10:00,76.5,72.0,29.74,SW,217,2.0,6.0,86,0.00,,,0.00,Wunderground v.1.15,2013-08-30 06:10:00,
2013-08-30 01:16:00,76.4,71.9,29.74,South,172,3.0,6.0,86,0.00,,,0.00,Wunderground v.1.15,2013-08-30 06:16:00,
2013-08-30 01:18:00,76.4,71.9,29.74,SSW,210,3.0,6.0,86,0.00,,,0.00,Wunderground v.1.15,2013-08-30 06:18:00,
2013-08-30 01:22:00,76.2,72.0,29.74,SW,231,2.0,3.0,87,0.00,,,0.00,Wunderground v.1.15,2013-08-30 06:22:00,
2013-08-30 01:24:00,76.2,72.0,29.74,SSW,207,3.0,4.0,87,0.00,,,0.00,Wunderground v.1.15,2013-08-30 06:24:00,
2013-08-30 01:26:00,76.2,72.0,29.74,WSW,238,3.0,6.0,87,0.00,,,0.00,Wunderground v.1.15,2013-08-30 06:26:00,
2013-08-30 01:28:00,76.1,71.9,29.74,SW,231,3.0,6.0,87,0.00,,,0.00,Wunderground v.1.15,2013-08-30 06:28:00,
2013-08-30 01:30:00,75.9,71.8,29.74,SSW,193,2.0,6.0,87,0.00,,,0.00,Wunderground v.1.15,2013-08-30 06:30:00,
2013-08-30 01:32:00,75.9,71.8,29.74,SW,229,2.0,6.0,87,0.00,,,0.00,Wunderground v.1.15,2013-08-30 06:32:00,
2013-08-30 01:36:00,75.7,71.9,29.74,SW,217,2.0,6.0,88,0.00,,,0.00,Wunderground v.1.15,2013-08-30 06:36:00,
2013-08-30 01:38:00,75.6,71.8,29.74,SSW,207,2.0,6.0,88,0.00,,,0.00,Wunderground v.1.15,2013-08-30 06:38:00,
2013-08-30 01:40:00,75.5,71.7,29.74,SSW,212,2.0,6.0,88,0.00,,,0.00,Wunderground v.1.15,2013-08-30 06:40:00,
2013-08-30 01:42:00,75.4,71.6,29.74,SW,229,2.0,6.0,88,0.00,,,0.00,Wunderground v.1.15,2013-08-30 06:42:00,
2013-08-30 01:48:00,75.0,71.5,29.74,SW,227,2.0,6.0,89,0.00,,,0.00,Wunderground v.1.15,2013-08-30 06:48:00,
2013-08-30 01:50:00,74.9,71.4,29.74,WSW,239,2.0,6.0,89,0.00,,,0.00,Wunderground v.1.15,2013-08-30 06:50:00,
2013-08-30 01:52:00,74.8,71.3,29.74,SW,219,2.0,6.0,89,0.00,,,0.00,Wunderground v.1.15,2013-08-30 06:52:00,
2013-08-30 01:56:00,74.6,71.5,29.74,SW,217,2.0,6.0,90,0.00,,,0.00,Wunderground v.1.15,2013-08-30 06:56:00,
2013-08-30 01:58:00,74.6,71.5,29.74,SW,215,2.0,6.0,90,0.00,,,0.00,Wunderground v.1.15,2013-08-30 06:58:00,
2013-08-30 02:02:00,74.5,71.4,29.74,SW,227,2.0,6.0,90,0.00,,,0.00,Wunderground v.1.15,2013-08-30 07:02:00,
2013-08-30 02:04:00,74.5,71.4,29.74,SSW,211,3.0,6.0,90,0.00,,,0.00,Wunderground v.1.15,2013-08-30 07:04:00,
2013-08-30 02:06:00,74.5,71.4,29.74,SW,226,3.0,6.0,90,0.00,,,0.00,Wunderground v.1.15,2013-08-30 07:06:00,
2013-08-30 02:08:00,74.4,71.3,29.74,SW,225,3.0,6.0,90,0.00,,,0.00,Wunderground v.1.15,2013-08-30 07:08:00,
2013-08-30 02:12:00,74.2,71.4,29.74,SW,236,2.0,6.0,91,0.00,,,0.00,Wunderground v.1.15,2013-08-30 07:12:00,
2013-08-30 02:14:00,74.1,71.3,29.74,SW,228,2.0,6.0,91,0.00,,,0.00,Wunderground v.1.15,2013-08-30 07:14:00,
2013-08-30 02:16:00,74.1,71.3,29.74,SW,231,3.0,6.0,91,0.00,,,0.00,Wunderground v.1.15,2013-08-30 07:16:00,
2013-08-30 02:18:00,74.1,71.3,29.74,SW,219,3.0,6.0,91,0.00,,,0.00,Wunderground v.1.15,2013-08-30 07:18:00,
2013-08-30 02:22:00,74.0,71.2,29.74,SW,221,3.0,6.0,91,0.00,,,0.00,Wunderground v.1.15,2013-08-30 07:22:00,
2013-08-30 02:24:00,73.9,71.1,29.74,SW,228,3.0,6.0,91,0.00,,,0.00,Wunderground v.1.15,2013-08-30 07:24:00,
2013-08-30 02:26:00,73.9,71.4,29.74,SW,214,3.0,6.0,92,0.00,,,0.00,Wunderground v.1.15,2013-08-30 07:26:00,
2013-08-30 02:30:00,73.9,71.4,29.74,SW,222,3.0,3.0,92,0.00,,,0.00,Wunderground v.1.15,2013-08-30 07:30:00,
2013-08-30 02:34:00,73.8,71.3,29.74,SW,226,2.0,6.0,92,0.00,,,0.00,Wunderground v.1.15,2013-08-30 07:34:00,
2013-08-30 02:36:00,73.7,71.2,29.74,SW,221,2.0,6.0,92,0.00,,,0.00,Wunderground v.1.15,2013-08-30 07:36:00,
2013-08-30 02:38:00,73.6,71.1,29.74,SW,228,2.0,6.0,92,0.00,,,0.00,Wunderground v.1.15,2013-08-30 07:38:00,
2013-08-30 02:40:00,73.5,71.0,29.74,SW,226,2.0,6.0,92,0.00,,,0.00,Wunderground v.1.15,2013-08-30 07:40:00,
2013-08-30 02:42:00,73.4,70.9,29.74,SW,233,2.0,6.0,92,0.00,,,0.00,Wunderground v.1.15,2013-08-30 07:42:00,
2013-08-30 02:48:00,73.2,71.1,29.74,SW,229,2.0,6.0,93,0.00,,,0.00,Wunderground v.1.15,2013-08-30 07:48:00,
2013-08-30 02:50:00,73.2,71.1,29.74,SW,232,2.0,2.0,93,0.00,,,0.00,Wunderground v.1.15,2013-08-30 07:50:00,
2013-08-30 02:54:00,73.1,71.0,29.74,SW,229,1.0,6.0,93,0.00,,,0.00,Wunderground v.1.15,2013-08-30 07:54:00,
2013-08-30 02:56:00,73.0,71.2,29.74,SW,225,1.0,6.0,94,0.00,,,0.00,Wunderground v.1.15,2013-08-30 07:56:00,
2013-08-30 02:58:00,73.0,71.2,29.74,SW,225,1.0,6.0,94,0.00,,,0.00,Wunderground v.1.15,2013-08-30 07:58:00,
2013-08-30 03:00:00,73.0,71.2,29.74,SW,219,1.0,6.0,94,0.00,,,0.00,Wunderground v.1.15,2013-08-30 08:00:00,
2013-08-30 03:02:00,73.0,71.2,29.74,SW,231,1.0,6.0,94,0.00,,,0.00,Wunderground v.1.15,2013-08-30 08:02:00,
2013-08-30 03:04:00,72.9,71.1,29.74,SW,235,1.0,6.0,94,0.00,,,0.00,Wunderground v.1.15,2013-08-30 08:04:00,
2013-08-30 03:08:00,72.9,71.1,29.74,SW,227,1.0,6.0,94,0.00,,,0.00,Wunderground v.1.15,2013-08-30 08:08:00,
2013-08-30 03:10:00,72.8,71.0,29.74,SW,235,1.0,6.0,94,0.00,,,0.00,Wunderground v.1.15,2013-08-30 08:10:00,
2013-08-30 03:12:00,72.8,71.0,29.74,SW,235,1.0,6.0,94,0.00,,,0.00,Wunderground v.1.15,2013-08-30 08:12:00,
2013-08-30 03:14:00,72.7,70.9,29.74,WSW,238,1.0,6.0,94,0.00,,,0.00,Wunderground v.1.15,2013-08-30 08:14:00,
2013-08-30 03:16:00,72.7,70.9,29.74,WSW,237,1.0,6.0,94,0.00,,,0.00,Wunderground v.1.15,2013-08-30 08:16:00,
2013-08-30 03:18:00,72.6,70.8,29.74,WSW,238,0.0,6.0,94,0.00,,,0.00,Wunderground v.1.15,2013-08-30 08:18:00,
2013-08-30 03:22:00,72.6,71.1,29.74,WSW,238,0.0,6.0,95,0.00,,,0.00,Wunderground v.1.15,2013-08-30 08:22:00,
2013-08-30 03:28:00,72.5,71.0,29.74,SW,225,1.0,6.0,95,0.00,,,0.00,Wunderground v.1.15,2013-08-30 08:28:00,
2013-08-30 03:30:00,72.5,71.0,29.73,SW,230,1.0,6.0,95,0.00,,,0.00,Wunderground v.1.15,2013-08-30 08:30:00,
2013-08-30 03:36:00,72.4,70.9,29.73,SW,235,1.0,6.0,95,0.00,,,0.00,Wunderground v.1.15,2013-08-30 08:36:00,
2013-08-30 03:38:00,72.4,70.9,29.73,SW,231,1.0,6.0,95,0.00,,,0.00,Wunderground v.1.15,2013-08-30 08:38:00,
2013-08-30 03:42:00,72.4,71.2,29.73,SW,232,1.0,6.0,96,0.00,,,0.00,Wunderground v.1.15,2013-08-30 08:42:00,
2013-08-30 03:44:00,72.4,71.2,29.73,SW,235,1.0,6.0,96,0.00,,,0.00,Wunderground v.1.15,2013-08-30 08:44:00,
2013-08-30 03:48:00,72.3,70.8,29.73,SW,235,0.0,6.0,95,0.00,,,0.00,Wunderground v.1.15,2013-08-30 08:48:00,
2013-08-30 03:50:00,72.3,70.8,29.73,SW,236,0.0,6.0,95,0.00,,,0.00,Wunderground v.1.15,2013-08-30 08:50:00,
2013-08-30 03:54:00,72.0,70.5,29.73,SW,235,0.0,6.0,95,0.00,,,0.00,Wunderground v.1.15,2013-08-30 08:54:00,
2013-08-30 03:56:00,71.9,70.4,29.73,SW,236,0.0,6.0,95,0.00,,,0.00,Wunderground v.1.15,2013-08-30 08:56:00,
2013-08-30 04:02:00,71.4,69.6,29.73,SW,235,0.0,6.0,94,0.00,,,0.00,Wunderground v.1.15,2013-08-30 09:02:00,
2013-08-30 04:04:00,71.3,69.8,29.73,SW,235,0.0,6.0,95,0.00,,,0.00,Wunderground v.1.15,2013-08-30 09:04:00,
2013-08-30 04:08:00,71.1,69.6,29.73,SW,235,0.0,6.0,95,0.00,,,0.00,Wunderground v.1.15,2013-08-30 09:08:00,
2013-08-30 04:10:00,71.0,69.5,29.73,SW,235,0.0,6.0,95,0.00,,,0.00,Wunderground v.1.15,2013-08-30 09:10:00,
2013-08-30 04:12:00,70.9,69.4,29.73,SW,236,0.0,6.0,95,0.00,,,0.00,Wunderground v.1.15,2013-08-30 09:12:00,
2013-08-30 04:16:00,70.7,69.2,29.73,SW,235,0.0,6.0,95,0.00,,,0.00,Wunderground v.1.15,2013-08-30 09:16:00,
2013-08-30 04:18:00,70.6,69.1,29.73,SW,235,0.0,6.0,95,0.00,,,0.00,Wunderground v.1.15,2013-08-30 09:18:00,
2013-08-30 04:20:00,70.5,69.0,29.73,SW,235,0.0,6.0,95,0.00,,,0.00,Wunderground v.1.15,2013-08-30 09:20:00,
2013-08-30 04:26:00,70.3,69.1,29.73,SW,235,0.0,6.0,96,0.00,,,0.00,Wunderground v.1.15,2013-08-30 09:26:00,
2013-08-30 04:28:00,70.2,69.0,29.73,SW,236,0.0,6.0,96,0.00,,,0.00,Wunderground v.1.15,2013-08-30 09:28:00,
2013-08-30 04:32:00,70.2,69.0,29.73,SW,235,0.0,6.0,96,0.00,,,0.00,Wunderground v.1.15,2013-08-30 09:32:00,
2013-08-30 04:34:00,70.2,69.0,29.73,SW,235,0.0,6.0,96,0.00,,,0.00,Wunderground v.1.15,2013-08-30 09:34:00,
2013-08-30 04:38:00,70.2,69.3,29.73,SW,235,0.0,6.0,97,0.00,,,0.00,Wunderground v.1.15,2013-08-30 09:38:00,
2013-08-30 04:42:00,70.3,69.4,29.74,East,80,1.0,6.0,97,0.00,,,0.00,Wunderground v.1.15,2013-08-30 09:42:00,
2013-08-30 04:44:00,70.3,69.4,29.73,East,80,1.0,6.0,97,0.00,,,0.00,Wunderground v.1.15,2013-08-30 09:44:00,
2013-08-30 04:50:00,70.6,70.0,29.74,ENE,58,1.0,6.0,98,0.00,,,0.00,Wunderground v.1.15,2013-08-30 09:50:00,
2013-08-30 04:52:00,70.6,70.0,29.74,ENE,65,1.0,6.0,98,0.00,,,0.00,Wunderground v.1.15,2013-08-30 09:52:00,
2013-08-30 04:56:00,70.6,70.0,29.74,ENE,67,1.0,6.0,98,0.00,,,0.00,Wunderground v.1.15,2013-08-30 09:56:00,
2013-08-30 04:58:00,70.6,70.0,29.73,ENE,69,1.0,6.0,98,0.00,,,0.00,Wunderground v.1.15,2013-08-30 09:58:00,
2013-08-30 05:00:00,70.7,70.1,29.73,ENE,70,1.0,1.0,98,0.00,,,0.00,Wunderground v.1.15,2013-08-30 10:00:00,
2013-08-30 05:04:00,70.6,69.7,29.73,East,84,0.0,6.0,97,0.00,,,0.00,Wunderground v.1.15,2013-08-30 10:04:00,
2013-08-30 05:06:00,70.5,69.6,29.74,ENE,72,0.0,6.0,97,0.00,,,0.00,Wunderground v.1.15,2013-08-30 10:06:00,
2013-08-30 05:08:00,70.3,69.4,29.73,ENE,72,0.0,6.0,97,0.00,,,0.00,Wunderground v.1.15,2013-08-30 10:08:00,
2013-08-30 05:10:00,70.3,69.4,29.73,East,87,0.0,6.0,97,0.00,,,0.00,Wunderground v.1.15,2013-08-30 10:10:00,
2013-08-30 05:12:00,70.2,69.3,29.73,East,87,0.0,6.0,97,0.00,,,0.00,Wunderground v.1.15,2013-08-30 10:12:00,
2013-08-30 05:14:00,70.2,69.3,29.73,East,87,0.0,6.0,97,0.00,,,0.00,Wunderground v.1.15,2013-08-30 10:14:00,
2013-08-30 05:16:00,70.2,69.3,29.73,East,87,0.0,6.0,97,0.00,,,0.00,Wunderground v.1.15,2013-08-30 10:16:00,
2013-08-30 05:20:00,70.2,69.3,29.73,East,87,0.0,6.0,97,0.00,,,0.00,Wunderground v.1.15,2013-08-30 10:20:00,
2013-08-30 05:24:00,70.1,69.2,29.73,East,87,0.0,6.0,97,0.00,,,0.00,Wunderground v.1.15,2013-08-30 10:24:00,
2013-08-30 05:26:00,70.0,69.1,29.73,East,88,0.0,6.0,97,0.00,,,0.00,Wunderground v.1.15,2013-08-30 10:26:00,
2013-08-30 05:28:00,70.0,69.1,29.73,East,87,0.0,6.0,97,0.00,,,0.00,Wunderground v.1.15,2013-08-30 10:28:00,
2013-08-30 05:30:00,69.9,69.0,29.73,East,87,0.0,6.0,97,0.00,,,0.00,Wunderground v.1.15,2013-08-30 10:30:00,
2013-08-30 05:32:00,69.8,68.9,29.73,East,82,0.0,6.0,97,0.00,,,0.00,Wunderground v.1.15,2013-08-30 10:32:00,
2013-08-30 05:36:00,69.7,68.8,29.73,SE,129,0.0,6.0,97,0.00,,,0.00,Wunderground v.1.15,2013-08-30 10:36:00,
2013-08-30 05:40:00,69.7,69.1,29.73,SE,141,1.0,6.0,98,0.00,,,0.00,Wunderground v.1.15,2013-08-30 10:40:00,
2013-08-30 05:42:00,69.7,69.1,29.73,SE,141,1.0,6.0,98,0.00,,,0.00,Wunderground v.1.15,2013-08-30 10:42:00,
2013-08-30 05:46:00,69.7,69.1,29.73,East,91,1.0,6.0,98,0.00,,,0.00,Wunderground v.1.15,2013-08-30 10:46:00,
2013-08-30 05:48:00,69.7,69.1,29.73,East,91,1.0,6.0,98,0.00,,,0.00,Wunderground v.1.15,2013-08-30 10:48:00,
2013-08-30 05:52:00,69.6,69.0,29.73,SSE,155,1.0,6.0,98,0.00,,,0.00,Wunderground v.1.15,2013-08-30 10:52:00,
2013-08-30 05:54:00,69.6,69.0,29.73,SSE,148,1.0,6.0,98,0.00,,,0.00,Wunderground v.1.15,2013-08-30 10:54:00,
2013-08-30 05:56:00,69.6,69.0,29.73,East,100,1.0,6.0,98,0.00,,,0.00,Wunderground v.1.15,2013-08-30 10:56:00,
2013-08-30 06:00:00,69.5,68.9,29.73,East,101,0.0,6.0,98,0.00,,,0.00,Wunderground v.1.15,2013-08-30 11:00:00,
2013-08-30 06:02:00,69.5,68.9,29.73,East,101,0.0,6.0,98,0.00,,,0.00,Wunderground v.1.15,2013-08-30 11:02:00,
2013-08-30 06:04:00,69.4,68.8,29.73,East,101,0.0,6.0,98,0.00,,,0.00,Wunderground v.1.15,2013-08-30 11:04:00,
2013-08-30 06:06:00,69.4,68.8,29.73,East,101,0.0,6.0,98,0.00,,,0.00,Wunderground v.1.15,2013-08-30 11:06:00,
2013-08-30 06:08:00,69.4,68.8,29.73,ESE,102,0.0,6.0,98,0.00,,,0.00,Wunderground v.1.15,2013-08-30 11:08:00,
2013-08-30 06:10:00,69.3,68.7,29.72,East,101,0.0,6.0,98,0.00,,,0.00,Wunderground v.1.15,2013-08-30 11:10:00,
2013-08-30 06:12:00,69.3,68.7,29.73,ESE,102,0.0,6.0,98,0.00,,,0.00,Wunderground v.1.15,2013-08-30 11:12:00,
2013-08-30 06:16:00,69.2,68.6,29.73,East,101,0.0,6.0,98,0.00,,,0.00,Wunderground v.1.15,2013-08-30 11:16:00,
2013-08-30 06:18:00,69.2,68.6,29.73,East,101,0.0,6.0,98,0.00,,,0.00,Wunderground v.1.15,2013-08-30 11:18:00,
2013-08-30 06:20:00,69.1,68.5,29.73,East,101,0.0,6.0,98,0.00,,,0.00,Wunderground v.1.15,2013-08-30 11:20:00,
2013-08-30 06:22:00,69.1,68.5,29.73,East,101,0.0,6.0,98,0.00,,,0.00,Wunderground v.1.15,2013-08-30 11:22:00,
2013-08-30 06:24:00,69.0,68.4,29.73,East,101,0.0,6.0,98,0.00,,,0.00,Wunderground v.1.15,2013-08-30 11:24:00,
2013-08-30 06:26:00,68.9,68.3,29.73,East,101,0.0,6.0,98,0.00,,,0.00,Wunderground v.1.15,2013-08-30 11:26:00,
2013-08-30 06:28:00,68.9,68.3,29.73,East,101,0.0,6.0,98,0.00,,,0.00,Wunderground v.1.15,2013-08-30 11:28:00,
2013-08-30 06:30:00,68.9,68.3,29.73,East,101,0.0,6.0,98,0.00,,,0.00,Wunderground v.1.15,2013-08-30 11:30:00,
2013-08-30 06:32:00,68.9,68.3,29.73,East,101,0.0,6.0,98,0.00,,,0.00,Wunderground v.1.15,2013-08-30 11:32:00,
2013-08-30 06:36:00,69.0,68.7,29.73,East,101,0.0,6.0,99,0.00,,,0.00,Wunderground v.1.15,2013-08-30 11:36:00,
2013-08-30 06:38:00,69.0,68.7,29.73,East,101,0.0,6.0,99,0.00,,,0.00,Wunderground v.1.15,2013-08-30 11:38:00,
2013-08-30 06:40:00,69.0,68.4,29.73,East,101,0.0,6.0,98,0.00,,,0.00,Wunderground v.1.15,2013-08-30 11:40:00,
2013-08-30 06:42:00,68.9,68.3,29.73,East,101,0.0,6.0,98,0.00,,,0.00,Wunderground v.1.15,2013-08-30 11:42:00,
2013-08-30 06:44:00,68.8,68.2,29.73,East,101,0.0,6.0,98,0.00,,,0.00,Wunderground v.1.15,2013-08-30 11:44:00,
2013-08-30 06:48:00,68.7,68.1,29.74,East,101,0.0,6.0,98,0.00,,,0.00,Wunderground v.1.15,2013-08-30 11:48:00,
2013-08-30 06:50:00,68.6,68.0,29.73,ESE,102,0.0,6.0,98,0.00,,,0.00,Wunderground v.1.15,2013-08-30 11:50:00,
2013-08-30 06:54:00,68.5,67.9,29.74,East,101,0.0,6.0,98,0.00,,,0.00,Wunderground v.1.15,2013-08-30 11:54:00,
2013-08-30 06:56:00,68.5,67.9,29.74,East,101,0.0,6.0,98,0.00,,,0.00,Wunderground v.1.15,2013-08-30 11:56:00,
2013-08-30 07:00:00,68.5,67.9,29.74,ESE,102,0.0,6.0,98,0.00,,,0.00,Wunderground v.1.15,2013-08-30 12:00:00,
2013-08-30 07:02:00,68.5,67.9,29.74,East,101,0.0,6.0,98,0.00,,,0.00,Wunderground v.1.15,2013-08-30 12:02:00,
2013-08-30 07:04:00,68.5,68.2,29.74,East,101,0.0,6.0,99,0.00,,,0.00,Wunderground v.1.15,2013-08-30 12:04:00,
2013-08-30 07:08:00,68.6,68.3,29.74,East,101,0.0,6.0,99,0.00,,,0.00,Wunderground v.1.15,2013-08-30 12:08:00,
2013-08-30 07:10:00,68.6,68.3,29.74,East,101,0.0,6.0,99,0.00,,,0.00,Wunderground v.1.15,2013-08-30 12:10:00,
2013-08-30 07:14:00,68.7,68.4,29.74,East,101,0.0,6.0,99,0.00,,,0.00,Wunderground v.1.15,2013-08-30 12:14:00,
2013-08-30 07:16:00,68.8,68.5,29.74,ESE,102,0.0,6.0,99,0.00,,,0.00,Wunderground v.1.15,2013-08-30 12:16:00,
2013-08-30 07:20:00,68.9,68.6,29.74,East,101,0.0,6.0,99,0.00,,,0.00,Wunderground v.1.15,2013-08-30 12:20:00,
2013-08-30 07:22:00,69.0,68.7,29.74,East,101,0.0,6.0,99,0.00,,,0.00,Wunderground v.1.15,2013-08-30 12:22:00,
2013-08-30 07:24:00,69.0,68.7,29.74,ESE,102,0.0,6.0,99,0.00,,,0.00,Wunderground v.1.15,2013-08-30 12:24:00,
2013-08-30 07:28:00,69.2,68.9,29.74,East,101,0.0,6.0,99,0.00,,,0.00,Wunderground v.1.15,2013-08-30 12:28:00,
2013-08-30 07:30:00,69.3,69.0,29.74,ESE,102,0.0,6.0,99,0.00,,,0.00,Wunderground v.1.15,2013-08-30 12:30:00,
2013-08-30 07:32:00,69.4,69.1,29.74,East,101,0.0,6.0,99,0.00,,,0.00,Wunderground v.1.15,2013-08-30 12:32:00,
2013-08-30 07:34:00,69.5,69.2,29.74,East,101,0.0,6.0,99,0.00,,,0.00,Wunderground v.1.15,2013-08-30 12:34:00,
2013-08-30 07:36:00,69.7,69.4,29.74,East,101,0.0,6.0,99,0.00,,,0.00,Wunderground v.1.15,2013-08-30 12:36:00,
2013-08-30 07:40:00,69.9,69.6,29.74,East,101,0.0,6.0,99,0.00,,,0.00,Wunderground v.1.15,2013-08-30 12:40:00,
2013-08-30 07:42:00,70.1,69.8,29.74,East,101,0.0,6.0,99,0.00,,,0.00,Wunderground v.1.15,2013-08-30 12:42:00,
2013-08-30 07:46:00,70.6,70.6,29.75,East,101,0.0,6.0,100,0.00,,,0.00,Wunderground v.1.15,2013-08-30 12:46:00,
2013-08-30 07:48:00,70.8,70.8,29.74,East,101,0.0,6.0,100,0.00,,,0.00,Wunderground v.1.15,2013-08-30 12:48:00,
2013-08-30 07:50:00,71.0,71.0,29.74,East,101,0.0,6.0,100,0.00,,,0.00,Wunderground v.1.15,2013-08-30 12:50:00,
2013-08-30 07:54:00,71.4,71.4,29.74,East,101,0.0,6.0,100,0.00,,,0.00,Wunderground v.1.15,2013-08-30 12:54:00,
2013-08-30 07:56:00,71.6,71.6,29.74,East,98,0.0,6.0,100,0.00,,,0.00,Wunderground v.1.15,2013-08-30 12:56:00,
2013-08-30 07:58:00,71.7,71.7,29.74,East,99,0.0,6.0,100,0.00,,,0.00,Wunderground v.1.15,2013-08-30 12:58:00,
2013-08-30 08:00:00,71.9,71.9,29.74,East,99,0.0,6.0,100,0.00,,,0.00,Wunderground v.1.15,2013-08-30 13:00:00,
2013-08-30 08:04:00,72.2,72.2,29.74,East,79,0.0,6.0,100,0.00,,,0.00,Wunderground v.1.15,2013-08-30 13:04:00,
2013-08-30 08:06:00,72.3,72.3,29.74,East,81,0.0,6.0,100,0.00,,,0.00,Wunderground v.1.15,2013-08-30 13:06:00,
2013-08-30 08:12:00,73.0,73.0,29.74,East,82,1.0,6.0,100,0.00,,,0.00,Wunderground v.1.15,2013-08-30 13:12:00,
2013-08-30 08:14:00,73.2,73.2,29.74,ENE,72,1.0,6.0,100,0.00,,,0.00,Wunderground v.1.15,2013-08-30 13:14:00,
2013-08-30 08:16:00,73.5,73.5,29.74,ENE,72,1.0,6.0,100,0.00,,,0.00,Wunderground v.1.15,2013-08-30 13:16:00,
2013-08-30 08:20:00,73.9,73.6,29.74,ENE,65,2.0,6.0,99,0.00,,,0.00,Wunderground v.1.15,2013-08-30 13:20:00,
2013-08-30 08:22:00,74.1,73.8,29.74,NE,53,2.0,6.0,99,0.00,,,0.00,Wunderground v.1.15,2013-08-30 13:22:00,
2013-08-30 08:24:00,74.4,73.8,29.74,ENE,69,3.0,6.0,98,0.00,,,0.00,Wunderground v.1.15,2013-08-30 13:24:00,
2013-08-30 08:26:00,74.7,74.1,29.74,NE,49,3.0,6.0,98,0.00,,,0.00,Wunderground v.1.15,2013-08-30 13:26:00,
2013-08-30 08:28:00,74.9,74.0,29.74,NE,56,3.0,6.0,97,0.00,,,0.00,Wunderground v.1.15,2013-08-30 13:28:00,
2013-08-30 08:30:00,75.2,74.3,29.75,ENE,60,3.0,6.0,97,0.00,,,0.00,Wunderground v.1.15,2013-08-30 13:30:00,
2013-08-30 08:34:00,75.8,74.6,29.74,NE,45,4.0,6.0,96,0.00,,,0.00,Wunderground v.1.15,2013-08-30 13:34:00,
2013-08-30 08:36:00,76.1,74.6,29.74,NE,34,4.0,6.0,95,0.00,,,0.00,Wunderground v.1.15,2013-08-30 13:36:00,
2013-08-30 08:42:00,76.9,74.4,29.74,NE,51,4.0,6.0,92,0.00,,,0.00,Wunderground v.1.15,2013-08-30 13:42:00,
2013-08-30 08:44:00,77.1,74.6,29.74,NE,43,4.0,6.0,92,0.00,,,0.00,Wunderground v.1.15,2013-08-30 13:44:00,
2013-08-30 08:48:00,77.5,75.0,29.74,NE,53,4.0,6.0,92,0.00,,,0.00,Wunderground v.1.15,2013-08-30 13:48:00,
2013-08-30 08:50:00,77.6,74.8,29.75,NE,45,3.0,6.0,91,0.00,,,0.00,Wunderground v.1.15,2013-08-30 13:50:00,
2013-08-30 08:54:00,78.0,74.8,29.75,NE,43,3.0,6.0,90,0.00,,,0.00,Wunderground v.1.15,2013-08-30 13:54:00,
2013-08-30 08:56:00,78.2,75.0,29.75,NE,43,3.0,6.0,90,0.00,,,0.00,Wunderground v.1.15,2013-08-30 13:56:00,
2013-08-30 08:58:00,78.3,74.8,29.75,ENE,58,3.0,6.0,89,0.00,,,0.00,Wunderground v.1.15,2013-08-30 13:58:00,
2013-08-30 09:00:00,78.5,75.0,29.75,NE,47,3.0,6.0,89,0.00,,,0.00,Wunderground v.1.15,2013-08-30 14:00:00,
2013-08-30 09:06:00,78.6,74.4,29.75,NE,47,4.0,6.0,87,0.00,,,0.00,Wunderground v.1.15,2013-08-30 14:06:00,
2013-08-30 09:12:00,78.8,74.6,29.75,NE,49,4.0,6.0,87,0.00,,,0.00,Wunderground v.1.15,2013-08-30 14:12:00,
2013-08-30 09:14:00,78.8,74.6,29.75,ENE,60,4.0,6.0,87,0.00,,,0.00,Wunderground v.1.15,2013-08-30 14:14:00,
2013-08-30 09:16:00,79.0,75.1,29.75,NNE,23,4.0,6.0,88,0.00,,,0.00,Wunderground v.1.15,2013-08-30 14:16:00,
2013-08-30 09:18:00,79.1,74.9,29.75,NE,44,4.0,6.0,87,0.00,,,0.00,Wunderground v.1.15,2013-08-30 14:18:00,
2013-08-30 09:22:00,79.3,74.7,29.75,NE,49,4.0,6.0,86,0.00,,,0.00,Wunderground v.1.15,2013-08-30 14:22:00,
2013-08-30 09:24:00,79.5,75.3,29.75,NE,55,4.0,6.0,87,0.00,,,0.00,Wunderground v.1.15,2013-08-30 14:24:00,
2013-08-30 09:28:00,79.9,75.7,29.75,NE,42,3.0,6.0,87,0.00,,,0.00,Wunderground v.1.15,2013-08-30 14:28:00,
2013-08-30 09:30:00,79.9,75.0,29.75,NE,43,3.0,6.0,85,0.00,,,0.00,Wunderground v.1.15,2013-08-30 14:30:00,
2013-08-30 09:32:00,79.9,75.3,29.75,NE,42,3.0,6.0,86,0.00,,,0.00,Wunderground v.1.15,2013-08-30 14:32:00,
2013-08-30 09:38:00,80.3,75.0,29.75,NE,46,4.0,6.0,84,0.00,,,0.00,Wunderground v.1.15,2013-08-30 14:38:00,
2013-08-30 09:44:00,80.4,75.5,29.75,NE,49,4.0,6.0,85,0.00,,,0.00,Wunderground v.1.15,2013-08-30 14:44:00,
2013-08-30 09:46:00,80.5,75.2,29.75,NE,52,4.0,7.0,84,0.00,,,0.00,Wunderground v.1.15,2013-08-30 14:46:00,
2013-08-30 09:48:00,80.5,75.2,29.75,NNE,27,4.0,7.0,84,0.00,,,0.00,Wunderground v.1.15,2013-08-30 14:48:00,
2013-08-30 09:52:00,80.6,75.0,29.75,NE,55,4.0,6.0,83,0.00,,,0.00,Wunderground v.1.15,2013-08-30 14:52:00,
2013-08-30 09:54:00,80.6,75.7,29.75,ENE,58,4.0,6.0,85,0.00,,,0.00,Wunderground v.1.15,2013-08-30 14:54:00,
2013-08-30 09:56:00,80.8,75.9,29.75,NE,37,4.0,6.0,85,0.00,,,0.00,Wunderground v.1.15,2013-08-30 14:56:00,
2013-08-30 10:02:00,81.6,75.9,29.75,ENE,65,3.0,6.0,83,0.00,,,0.00,Wunderground v.1.15,2013-08-30 15:02:00,
2013-08-30 10:04:00,81.7,75.7,29.75,NE,55,3.0,6.0,82,0.00,,,0.00,Wunderground v.1.15,2013-08-30 15:04:00,
2013-08-30 10:06:00,81.7,75.7,29.75,NE,49,3.0,6.0,82,0.00,,,0.00,Wunderground v.1.15,2013-08-30 15:06:00,
2013-08-30 10:08:00,81.9,76.2,29.75,NNE,22,3.0,6.0,83,0.00,,,0.00,Wunderground v.1.15,2013-08-30 15:08:00,
2013-08-30 10:12:00,81.9,75.5,29.75,ENE,58,3.0,6.0,81,0.00,,,0.00,Wunderground v.1.15,2013-08-30 15:12:00,
2013-08-30 10:14:00,81.8,75.0,29.75,ENE,60,4.0,6.0,80,0.00,,,0.00,Wunderground v.1.15,2013-08-30 15:14:00,
2013-08-30 10:16:00,81.8,75.8,29.75,NE,49,4.0,6.0,82,0.00,,,0.00,Wunderground v.1.15,2013-08-30 15:16:00,
2013-08-30 10:20:00,82.3,76.6,29.75,NE,43,4.0,4.0,83,0.00,,,0.00,Wunderground v.1.15,2013-08-30 15:20:00,
2013-08-30 10:22:00,82.5,76.1,29.75,NE,52,3.0,6.0,81,0.00,,,0.00,Wunderground v.1.15,2013-08-30 15:22:00,
2013-08-30 10:26:00,83.0,76.9,29.75,NE,42,3.0,6.0,82,0.00,,,0.00,Wunderground v.1.15,2013-08-30 15:26:00,
2013-08-30 10:28:00,83.2,76.8,29.76,NE,50,3.0,6.0,81,0.00,,,0.00,Wunderground v.1.15,2013-08-30 15:28:00,
2013-08-30 10:32:00,83.5,76.7,29.75,NE,53,3.0,6.0,80,0.00,,,0.00,Wunderground v.1.15,2013-08-30 15:32:00,
2013-08-30 10:38:00,83.7,76.9,29.75,NE,49,3.0,6.0,80,0.00,,,0.00,Wunderground v.1.15,2013-08-30 15:38:00,
2013-08-30 10:44:00,84.0,76.4,29.75,ENE,60,3.0,6.0,78,0.00,,,0.00,Wunderground v.1.15,2013-08-30 15:44:00,
2013-08-30 10:50:00,84.0,75.6,29.75,NE,46,4.0,6.0,76,0.00,,,0.00,Wunderground v.1.15,2013-08-30 15:50:00,
2013-08-30 10:52:00,83.9,76.3,29.75,NNE,27,4.0,6.0,78,0.00,,,0.00,Wunderground v.1.15,2013-08-30 15:52:00,
2013-08-30 10:56:00,83.9,76.3,29.75,ENE,72,4.0,6.0,78,0.00,,,0.00,Wunderground v.1.15,2013-08-30 15:56:00,
2013-08-30 10:58:00,84.0,76.0,29.75,ENE,61,4.0,6.0,77,0.00,,,0.00,Wunderground v.1.15,2013-08-30 15:58:00,
2013-08-30 11:00:00,84.1,76.1,29.75,NE,49,4.0,4.0,77,0.00,,,0.00,Wunderground v.1.15,2013-08-30 16:00:00,
2013-08-30 11:04:00,84.3,76.7,29.75,North,11,4.0,6.0,78,0.00,,,0.00,Wunderground v.1.15,2013-08-30 16:04:00,
2013-08-30 11:06:00,84.3,75.5,29.75,NE,37,4.0,6.0,75,0.00,,,0.00,Wunderground v.1.15,2013-08-30 16:06:00,
2013-08-30 11:08:00,84.5,76.5,29.75,NE,46,4.0,6.0,77,0.00,,,0.00,Wunderground v.1.15,2013-08-30 16:08:00,
2013-08-30 11:12:00,84.6,76.2,29.75,ENE,75,4.0,6.0,76,0.00,,,0.00,Wunderground v.1.15,2013-08-30 16:12:00,
2013-08-30 11:14:00,84.7,76.3,29.75,NE,46,4.0,6.0,76,0.00,,,0.00,Wunderground v.1.15,2013-08-30 16:14:00,
2013-08-30 11:16:00,84.8,76.0,29.75,NE,52,3.0,6.0,75,0.00,,,0.00,Wunderground v.1.15,2013-08-30 16:16:00,
2013-08-30 11:22:00,85.1,76.3,29.75,NNE,30,4.0,6.0,75,0.00,,,0.00,Wunderground v.1.15,2013-08-30 16:22:00,
2013-08-30 11:24:00,85.2,76.0,29.75,NE,49,4.0,6.0,74,0.00,,,0.00,Wunderground v.1.15,2013-08-30 16:24:00,
2013-08-30 11:26:00,85.2,76.0,29.75,NE,47,4.0,6.0,74,0.00,,,0.00,Wunderground v.1.15,2013-08-30 16:26:00,
2013-08-30 11:30:00,85.1,75.5,29.75,ENE,65,4.0,6.0,73,0.00,,,0.00,Wunderground v.1.15,2013-08-30 16:30:00,
2013-08-30 11:32:00,85.0,75.4,29.75,ENE,60,5.0,6.0,73,0.00,,,0.00,Wunderground v.1.15,2013-08-30 16:32:00,
2013-08-30 11:34:00,85.0,75.8,29.75,ENE,58,5.0,6.0,74,0.00,,,0.00,Wunderground v.1.15,2013-08-30 16:34:00,
2013-08-30 11:36:00,84.9,75.3,29.75,ENE,64,5.0,8.0,73,0.00,,,0.00,Wunderground v.1.15,2013-08-30 16:36:00,
2013-08-30 11:40:00,85.1,75.1,29.75,North,10,5.0,5.0,72,0.00,,,0.00,Wunderground v.1.15,2013-08-30 16:40:00,
2013-08-30 11:42:00,85.1,74.6,29.75,NE,47,5.0,6.0,71,0.00,,,0.00,Wunderground v.1.15,2013-08-30 16:42:00,
2013-08-30 11:48:00,85.3,76.1,29.75,NE,47,5.0,7.0,74,0.00,,,0.00,Wunderground v.1.15,2013-08-30 16:48:00,
2013-08-30 11:50:00,85.3,75.2,29.75,NE,46,5.0,6.0,72,0.00,,,0.00,Wunderground v.1.15,2013-08-30 16:50:00,
2013-08-30 11:54:00,85.4,74.9,29.75,NE,54,6.0,7.0,71,0.00,,,0.00,Wunderground v.1.15,2013-08-30 16:54:00,
2013-08-30 11:56:00,85.4,74.9,29.75,NE,56,6.0,7.0,71,0.00,,,0.00,Wunderground v.1.15,2013-08-30 16:56:00,
2013-08-30 11:58:00,85.4,75.3,29.75,NE,56,6.0,9.0,72,0.00,,,0.00,Wunderground v.1.15,2013-08-30 16:58:00,
2013-08-30 12:02:00,85.1,75.1,29.75,NE,47,6.0,10.0,72,0.00,,,0.00,Wunderground v.1.15,2013-08-30 17:02:00,
2013-08-30 12:06:00,85.5,75.4,29.75,NE,49,6.0,10.0,72,0.00,,,0.00,Wunderground v.1.15,2013-08-30 17:06:00,
2013-08-30 12:08:00,85.4,74.9,29.75,NE,52,6.0,10.0,71,0.00,,,0.00,Wunderground v.1.15,2013-08-30 17:08:00,
2013-08-30 12:10:00,85.4,75.3,29.75,ENE,60,6.0,6.0,72,0.00,,,0.00,Wunderground v.1.15,2013-08-30 17:10:00,
2013-08-30 12:14:00,85.2,75.1,29.75,NE,39,6.0,6.0,72,0.00,,,0.00,Wunderground v.1.15,2013-08-30 17:14:00,
2013-08-30 12:16:00,85.3,74.4,29.75,ENE,61,5.0,8.0,70,0.00,,,0.00,Wunderground v.1.15,2013-08-30 17:16:00,
2013-08-30 12:20:00,85.5,74.6,29.75,NE,39,5.0,5.0,70,0.00,,,0.00,Wunderground v.1.15,2013-08-30 17:20:00,
2013-08-30 12:22:00,85.4,73.6,29.75,NE,47,6.0,7.0,68,0.00,,,0.00,Wunderground v.1.15,2013-08-30 17:22:00,
2013-08-30 12:26:00,85.2,73.9,29.75,NE,49,7.0,7.0,69,0.00,,,0.00,Wunderground v.1.15,2013-08-30 17:26:00,
2013-08-30 12:30:00,85.2,74.3,29.75,ENE,59,7.0,7.0,70,0.00,,,0.00,Wunderground v.1.15,2013-08-30 17:30:00,
2013-08-30 12:32:00,85.4,73.6,29.75,ENE,58,6.0,11.0,68,0.00,,,0.00,Wunderground v.1.15,2013-08-30 17:32:00,
2013-08-30 12:34:00,85.5,73.7,29.75,NNE,23,6.0,11.0,68,0.00,,,0.00,Wunderground v.1.15,2013-08-30 17:34:00,
2013-08-30 12:36:00,85.6,75.1,29.75,NE,54,6.0,11.0,71,0.00,,,0.00,Wunderground v.1.15,2013-08-30 17:36:00,
2013-08-30 12:38:00,85.9,75.0,29.75,ENE,64,6.0,11.0,70,0.00,,,0.00,Wunderground v.1.15,2013-08-30 17:38:00,
2013-08-30 12:42:00,86.2,75.3,29.75,East,79,5.0,6.0,70,0.00,,,0.00,Wunderground v.1.15,2013-08-30 17:42:00,
2013-08-30 12:44:00,86.1,74.7,29.75,ENE,60,5.0,6.0,69,0.00,,,0.00,Wunderground v.1.15,2013-08-30 17:44:00,
2013-08-30 12:46:00,86.1,75.2,29.75,NE,47,5.0,6.0,70,0.00,,,0.00,Wunderground v.1.15,2013-08-30 17:46:00,
2013-08-30 12:52:00,86.0,74.2,29.75,NE,44,5.0,7.0,68,0.00,,,0.00,Wunderground v.1.15,2013-08-30 17:52:00,
2013-08-30 12:54:00,86.0,75.1,29.75,NE,51,5.0,7.0,70,0.00,,,0.00,Wunderground v.1.15,2013-08-30 17:54:00,
2013-08-30 12:56:00,86.0,74.2,29.75,ENE,65,5.0,7.0,68,0.00,,,0.00,Wunderground v.1.15,2013-08-30 17:56:00,
2013-08-30 13:00:00,86.2,74.4,29.75,ENE,58,5.0,5.0,68,0.00,,,0.00,Wunderground v.1.15,2013-08-30 18:00:00,
2013-08-30 13:02:00,86.3,74.0,29.75,NE,49,5.0,11.0,67,0.00,,,0.00,Wunderground v.1.15,2013-08-30 18:02:00,
2013-08-30 13:06:00,86.4,75.0,29.75,NE,56,5.0,11.0,69,0.00,,,0.00,Wunderground v.1.15,2013-08-30 18:06:00,
2013-08-30 13:08:00,86.4,75.0,29.75,NE,56,5.0,11.0,69,0.00,,,0.00,Wunderground v.1.15,2013-08-30 18:08:00,
2013-08-30 13:10:00,86.3,74.9,29.75,NE,56,5.0,11.0,69,0.00,,,0.00,Wunderground v.1.15,2013-08-30 18:10:00,
2013-08-30 13:14:00,86.1,75.2,29.75,NE,49,5.0,11.0,70,0.00,,,0.00,Wunderground v.1.15,2013-08-30 18:14:00,
2013-08-30 13:16:00,86.1,74.7,29.75,NNE,30,6.0,11.0,69,0.00,,,0.00,Wunderground v.1.15,2013-08-30 18:16:00,
2013-08-30 13:18:00,86.2,75.3,29.75,WNW,288,6.0,11.0,70,0.00,,,0.00,Wunderground v.1.15,2013-08-30 18:18:00,
2013-08-30 13:20:00,86.3,75.4,29.75,ENE,73,5.0,5.0,70,0.00,,,0.00,Wunderground v.1.15,2013-08-30 18:20:00,
2013-08-30 13:22:00,86.5,76.0,29.75,NE,34,5.0,11.0,71,0.00,,,0.00,Wunderground v.1.15,2013-08-30 18:22:00,
2013-08-30 13:26:00,86.2,75.3,29.74,NE,55,5.0,11.0,70,0.00,,,0.00,Wunderground v.1.15,2013-08-30 18:26:00,
2013-08-30 13:28:00,86.2,75.7,29.75,NE,35,5.0,11.0,71,0.00,,,0.00,Wunderground v.1.15,2013-08-30 18:28:00,
2013-08-30 13:32:00,86.5,76.4,29.75,NE,36,5.0,11.0,72,0.00,,,0.00,Wunderground v.1.15,2013-08-30 18:32:00,
2013-08-30 13:34:00,86.6,76.1,29.74,ESE,114,5.0,11.0,71,0.00,,,0.00,Wunderground v.1.15,2013-08-30 18:34:00,
2013-08-30 13:38:00,86.4,75.5,29.74,ESE,104,5.0,11.0,70,0.00,,,0.00,Wunderground v.1.15,2013-08-30 18:38:00,
2013-08-30 13:40:00,86.3,75.4,29.74,NE,55,5.0,11.0,70,0.00,,,0.00,Wunderground v.1.15,2013-08-30 18:40:00,
2013-08-30 13:44:00,86.1,75.6,29.74,ENE,68,5.0,11.0,71,0.00,,,0.00,Wunderground v.1.15,2013-08-30 18:44:00,
2013-08-30 13:46:00,86.2,75.3,29.74,ENE,58,5.0,11.0,70,0.00,,,0.00,Wunderground v.1.15,2013-08-30 18:46:00,
2013-08-30 13:48:00,86.1,75.6,29.74,NNE,16,5.0,11.0,71,0.00,,,0.00,Wunderground v.1.15,2013-08-30 18:48:00,
2013-08-30 13:50:00,86.1,76.0,29.75,NE,44,5.0,5.0,72,0.00,,,0.00,Wunderground v.1.15,2013-08-30 18:50:00,
2013-08-30 13:52:00,86.1,75.2,29.75,NE,45,5.0,11.0,70,0.00,,,0.00,Wunderground v.1.15,2013-08-30 18:52:00,
2013-08-30 13:54:00,86.2,75.7,29.75,NNE,15,5.0,11.0,71,0.00,,,0.00,Wunderground v.1.15,2013-08-30 18:54:00,
2013-08-30 13:56:00,86.3,75.8,29.75,NE,49,5.0,11.0,71,0.00,,,0.00,Wunderground v.1.15,2013-08-30 18:56:00,
2013-08-30 14:00:00,86.3,74.9,29.75,NE,41,5.0,5.0,69,0.00,,,0.00,Wunderground v.1.15,2013-08-30 19:00:00,
2013-08-30 14:02:00,86.3,74.9,29.75,ENE,58,5.0,7.0,69,0.00,,,0.00,Wunderground v.1.15,2013-08-30 19:02:00,
2013-08-30 14:04:00,86.1,75.2,29.75,ENE,69,5.0,11.0,70,0.00,,,0.00,Wunderground v.1.15,2013-08-30 19:04:00,
2013-08-30 14:10:00,86.4,75.0,29.75,NE,51,5.0,11.0,69,0.00,,,0.00,Wunderground v.1.15,2013-08-30 19:10:00,
2013-08-30 14:12:00,86.1,74.3,29.75,NE,53,5.0,11.0,68,0.00,,,0.00,Wunderground v.1.15,2013-08-30 19:12:00,
2013-08-30 14:14:00,86.0,75.1,29.75,NW,322,5.0,11.0,70,0.00,,,0.00,Wunderground v.1.15,2013-08-30 19:14:00,
2013-08-30 14:16:00,86.1,75.6,29.75,NE,49,5.0,11.0,71,0.00,,,0.00,Wunderground v.1.15,2013-08-30 19:16:00,
2013-08-30 14:20:00,86.0,75.5,29.75,NE,34,5.0,5.0,71,0.00,,,0.00,Wunderground v.1.15,2013-08-30 19:20:00,
2013-08-30 14:22:00,86.2,76.1,29.75,NE,46,5.0,6.0,72,0.00,,,0.00,Wunderground v.1.15,2013-08-30 19:22:00,
2013-08-30 14:24:00,86.2,75.3,29.75,NE,56,5.0,11.0,70,0.00,,,0.00,Wunderground v.1.15,2013-08-30 19:24:00,
2013-08-30 14:26:00,86.1,74.3,29.75,NE,56,5.0,11.0,68,0.00,,,0.00,Wunderground v.1.15,2013-08-30 19:26:00,
2013-08-30 14:28:00,86.1,75.6,29.75,ENE,63,5.0,11.0,71,0.00,,,0.00,Wunderground v.1.15,2013-08-30 19:28:00,
2013-08-30 14:30:00,85.9,75.4,29.75,ENE,58,5.0,11.0,71,0.00,,,0.00,Wunderground v.1.15,2013-08-30 19:30:00,
2013-08-30 14:36:00,85.7,75.2,29.75,NE,51,6.0,11.0,71,0.00,,,0.00,Wunderground v.1.15,2013-08-30 19:36:00,
2013-08-30 14:38:00,85.7,74.8,29.75,NE,47,6.0,11.0,70,0.00,,,0.00,Wunderground v.1.15,2013-08-30 19:38:00,
2013-08-30 14:40:00,85.6,75.1,29.75,ENE,63,6.0,6.0,71,0.00,,,0.00,Wunderground v.1.15,2013-08-30 19:40:00,
2013-08-30 14:44:00,85.7,75.6,29.75,NNE,25,6.0,11.0,72,0.00,,,0.00,Wunderground v.1.15,2013-08-30 19:44:00,
2013-08-30 14:46:00,85.5,74.6,29.75,NE,41,6.0,11.0,70,0.00,,,0.00,Wunderground v.1.15,2013-08-30 19:46:00,
2013-08-30 14:52:00,85.2,74.3,29.75,ENE,57,6.0,11.0,70,0.00,,,0.00,Wunderground v.1.15,2013-08-30 19:52:00,
2013-08-30 15:00:00,85.2,74.7,29.75,NE,49,5.0,5.0,71,0.00,,,0.00,Wunderground v.1.15,2013-08-30 20:00:00,
2013-08-30 15:04:00,85.1,74.2,29.74,ENE,64,5.0,8.0,70,0.00,,,0.00,Wunderground v.1.15,2013-08-30 20:04:00,
2013-08-30 15:06:00,84.9,74.9,29.75,NE,40,5.0,11.0,72,0.00,,,0.00,Wunderground v.1.15,2013-08-30 20:06:00,
2013-08-30 15:08:00,84.7,74.3,29.74,NE,56,5.0,11.0,71,0.00,,,0.00,Wunderground v.1.15,2013-08-30 20:08:00,
2013-08-30 15:10:00,84.5,73.6,29.74,NE,39,5.0,11.0,70,0.00,,,0.00,Wunderground v.1.15,2013-08-30 20:10:00,
2013-08-30 15:12:00,84.5,74.1,29.74,NE,52,6.0,11.0,71,0.00,,,0.00,Wunderground v.1.15,2013-08-30 20:12:00,
2013-08-30 15:14:00,84.6,74.2,29.74,NNE,23,6.0,11.0,71,0.00,,,0.00,Wunderground v.1.15,2013-08-30 20:14:00,
2013-08-30 15:16:00,84.8,74.8,29.74,NE,54,5.0,11.0,72,0.00,,,0.00,Wunderground v.1.15,2013-08-30 20:16:00,
2013-08-30 15:18:00,84.9,74.4,29.74,NE,40,5.0,11.0,71,0.00,,,0.00,Wunderground v.1.15,2013-08-30 20:18:00,
2013-08-30 15:20:00,84.8,74.3,29.75,NE,52,5.0,11.0,71,0.00,,,0.00,Wunderground v.1.15,2013-08-30 20:20:00,
2013-08-30 15:24:00,84.7,74.3,29.74,ENE,63,5.0,11.0,71,0.00,,,0.00,Wunderground v.1.15,2013-08-30 20:24:00,
2013-08-30 15:26:00,84.7,74.7,29.74,NE,37,5.0,11.0,72,0.00,,,0.00,Wunderground v.1.15,2013-08-30 20:26:00,
2013-08-30 15:28:00,84.7,73.8,29.75,NNE,30,5.0,11.0,70,0.00,,,0.00,Wunderground v.1.15,2013-08-30 20:28:00,
2013-08-30 15:30:00,84.5,73.6,29.75,NE,55,5.0,11.0,70,0.00,,,0.00,Wunderground v.1.15,2013-08-30 20:30:00,
2013-08-30 15:32:00,84.3,73.9,29.75,NE,49,6.0,11.0,71,0.00,,,0.00,Wunderground v.1.15,2013-08-30 20:32:00,
2013-08-30 15:36:00,84.3,73.9,29.75,NNW,345,5.0,11.0,71,0.00,,,0.00,Wunderground v.1.15,2013-08-30 20:36:00,
2013-08-30 15:38:00,84.2,72.9,29.75,NE,41,6.0,11.0,69,0.00,,,0.00,Wunderground v.1.15,2013-08-30 20:38:00,
2013-08-30 15:40:00,84.1,74.1,29.75,NNE,30,5.0,5.0,72,0.00,,,0.00,Wunderground v.1.15,2013-08-30 20:40:00,
2013-08-30 15:42:00,84.0,73.6,29.75,NNE,18,5.0,6.0,71,0.00,,,0.00,Wunderground v.1.15,2013-08-30 20:42:00,
2013-08-30 15:44:00,83.6,72.8,29.75,NE,36,5.0,11.0,70,0.00,,,0.00,Wunderground v.1.15,2013-08-30 20:44:00,
2013-08-30 15:48:00,83.7,73.3,29.74,NE,49,4.0,11.0,71,0.00,,,0.00,Wunderground v.1.15,2013-08-30 20:48:00,
2013-08-30 15:50:00,83.7,73.7,29.74,ENE,64,4.0,11.0,72,0.00,,,0.00,Wunderground v.1.15,2013-08-30 20:50:00,
2013-08-30 15:52:00,83.7,72.9,29.74,NE,47,4.0,11.0,70,0.00,,,0.00,Wunderground v.1.15,2013-08-30 20:52:00,
2013-08-30 15:56:00,83.8,73.8,29.75,ENE,58,4.0,11.0,72,0.00,,,0.00,Wunderground v.1.15,2013-08-30 20:56:00,
2013-08-30 15:58:00,83.9,73.5,29.74,ENE,58,4.0,11.0,71,0.00,,,0.00,Wunderground v.1.15,2013-08-30 20:58:00,
2013-08-30 16:02:00,84.1,73.7,29.74,NE,44,4.0,11.0,71,0.00,,,0.00,Wunderground v.1.15,2013-08-30 21:02:00,
2013-08-30 16:04:00,84.1,73.7,29.74,NE,49,4.0,11.0,71,0.00,,,0.00,Wunderground v.1.15,2013-08-30 21:04:00,
2013-08-30 16:08:00,84.1,73.3,29.74,NE,44,4.0,11.0,70,0.00,,,0.00,Wunderground v.1.15,2013-08-30 21:08:00,
2013-08-30 16:10:00,84.1,73.7,29.74,NE,56,4.0,4.0,71,0.00,,,0.00,Wunderground v.1.15,2013-08-30 21:10:00,
2013-08-30 16:12:00,84.2,74.2,29.74,NE,54,4.0,6.0,72,0.00,,,0.00,Wunderground v.1.15,2013-08-30 21:12:00,
2013-08-30 16:16:00,84.3,73.9,29.74,ENE,57,3.0,11.0,71,0.00,,,0.00,Wunderground v.1.15,2013-08-30 21:16:00,
2013-08-30 16:20:00,84.1,73.7,29.74,NE,39,3.0,11.0,71,0.00,,,0.00,Wunderground v.1.15,2013-08-30 21:20:00,
2013-08-30 16:22:00,84.2,73.8,29.74,NE,53,3.0,11.0,71,0.00,,,0.00,Wunderground v.1.15,2013-08-30 21:22:00,
2013-08-30 16:24:00,84.1,73.7,29.74,ENE,62,4.0,11.0,71,0.00,,,0.00,Wunderground v.1.15,2013-08-30 21:24:00,
2013-08-30 16:26:00,84.1,73.7,29.74,NE,46,4.0,11.0,71,0.00,,,0.00,Wunderground v.1.15,2013-08-30 21:26:00,
2013-08-30 16:28:00,84.1,73.7,29.74,ENE,71,3.0,11.0,71,0.00,,,0.00,Wunderground v.1.15,2013-08-30 21:28:00,
2013-08-30 16:30:00,84.2,74.2,29.74,NE,36,4.0,11.0,72,0.00,,,0.00,Wunderground v.1.15,2013-08-30 21:30:00,
2013-08-30 16:32:00,84.1,73.7,29.74,NE,53,4.0,11.0,71,0.00,,,0.00,Wunderground v.1.15,2013-08-30 21:32:00,
2013-08-30 16:34:00,83.9,73.1,29.74,NE,53,4.0,11.0,70,0.00,,,0.00,Wunderground v.1.15,2013-08-30 21:34:00,
2013-08-30 16:36:00,83.7,72.9,29.74,NNE,22,4.0,11.0,70,0.00,,,0.00,Wunderground v.1.15,2013-08-30 21:36:00,
2013-08-30 16:42:00,83.7,72.9,29.74,NE,40,4.0,7.0,70,0.00,,,0.00,Wunderground v.1.15,2013-08-30 21:42:00,
2013-08-30 16:44:00,83.6,72.8,29.74,ENE,58,4.0,11.0,70,0.00,,,0.00,Wunderground v.1.15,2013-08-30 21:44:00,
2013-08-30 16:46:00,83.6,73.2,29.74,NNW,348,4.0,11.0,71,0.00,,,0.00,Wunderground v.1.15,2013-08-30 21:46:00,
2013-08-30 16:52:00,84.1,73.3,29.74,NE,45,3.0,11.0,70,0.00,,,0.00,Wunderground v.1.15,2013-08-30 21:52:00,
2013-08-30 16:54:00,84.1,73.3,29.74,NE,44,2.0,11.0,70,0.00,,,0.00,Wunderground v.1.15,2013-08-30 21:54:00,
2013-08-30 16:56:00,84.0,73.2,29.74,NNE,13,3.0,11.0,70,0.00,,,0.00,Wunderground v.1.15,2013-08-30 21:56:00,
2013-08-30 17:00:00,83.6,73.2,29.73,ENE,58,3.0,11.0,71,0.00,,,0.00,Wunderground v.1.15,2013-08-30 22:00:00,
2013-08-30 17:02:00,83.5,72.7,29.73,NE,51,4.0,11.0,70,0.00,,,0.00,Wunderground v.1.15,2013-08-30 22:02:00,
2013-08-30 17:04:00,83.4,73.0,29.73,ENE,68,4.0,11.0,71,0.00,,,0.00,Wunderground v.1.15,2013-08-30 22:04:00,
2013-08-30 17:06:00,83.3,72.9,29.73,ENE,68,4.0,11.0,71,0.00,,,0.00,Wunderground v.1.15,2013-08-30 22:06:00,
2013-08-30 17:12:00,83.2,72.8,29.73,ENE,63,4.0,11.0,71,0.00,,,0.00,Wunderground v.1.15,2013-08-30 22:12:00,
2013-08-30 17:14:00,83.2,72.4,29.73,NNW,347,3.0,11.0,70,0.00,,,0.00,Wunderground v.1.15,2013-08-30 22:14:00,
2013-08-30 17:18:00,83.1,72.3,29.73,NE,35,3.0,11.0,70,0.00,,,0.00,Wunderground v.1.15,2013-08-30 22:18:00,
2013-08-30 17:20:00,83.1,73.1,29.73,ENE,78,3.0,11.0,72,0.00,,,0.00,Wunderground v.1.15,2013-08-30 22:20:00,
2013-08-30 17:26:00,82.8,72.4,29.73,NE,51,4.0,11.0,71,0.00,,,0.00,Wunderground v.1.15,2013-08-30 22:26:00,
2013-08-30 17:30:00,82.6,72.7,29.73,NE,40,4.0,11.0,72,0.00,,,0.00,Wunderground v.1.15,2013-08-30 22:30:00,
2013-08-30 17:32:00,82.5,72.1,29.73,NE,36,4.0,11.0,71,0.00,,,0.00,Wunderground v.1.15,2013-08-30 22:32:00,
2013-08-30 17:34:00,82.3,72.0,29.73,NE,55,4.0,11.0,71,0.00,,,0.00,Wunderground v.1.15,2013-08-30 22:34:00,
2013-08-30 17:36:00,82.2,72.3,29.73,NE,52,4.0,11.0,72,0.00,,,0.00,Wunderground v.1.15,2013-08-30 22:36:00,
2013-08-30 17:42:00,82.1,72.2,29.73,ENE,67,3.0,11.0,72,0.00,,,0.00,Wunderground v.1.15,2013-08-30 22:42:00,
2013-08-30 17:44:00,81.9,71.6,29.73,NE,35,3.0,11.0,71,0.00,,,0.00,Wunderground v.1.15,2013-08-30 22:44:00,
2013-08-30 17:46:00,81.6,71.7,29.73,ENE,58,3.0,11.0,72,0.00,,,0.00,Wunderground v.1.15,2013-08-30 22:46:00,
2013-08-30 17:52:00,81.6,72.1,29.73,East,85,2.0,11.0,73,0.00,,,0.00,Wunderground v.1.15,2013-08-30 22:52:00,
2013-08-30 17:54:00,81.6,72.1,29.73,NNE,33,3.0,11.0,73,0.00,,,0.00,Wunderground v.1.15,2013-08-30 22:54:00,
2013-08-30 17:56:00,81.6,72.1,29.73,ENE,68,3.0,11.0,73,0.00,,,0.00,Wunderground v.1.15,2013-08-30 22:56:00,
2013-08-30 18:00:00,81.7,72.2,29.73,NE,49,3.0,3.0,73,0.00,,,0.00,Wunderground v.1.15,2013-08-30 23:00:00,
2013-08-30 18:02:00,81.7,72.2,29.73,ENE,57,3.0,11.0,73,0.00,,,0.00,Wunderground v.1.15,2013-08-30 23:02:00,
2013-08-30 18:06:00,81.7,72.6,29.73,ENE,75,3.0,11.0,74,0.00,,,0.00,Wunderground v.1.15,2013-08-30 23:06:00,
2013-08-30 18:10:00,81.4,71.9,29.73,NNE,13,3.0,11.0,73,0.00,,,0.00,Wunderground v.1.15,2013-08-30 23:10:00,
2013-08-30 18:14:00,81.2,72.1,29.73,NE,40,3.0,11.0,74,0.00,,,0.00,Wunderground v.1.15,2013-08-30 23:14:00,
2013-08-30 18:16:00,81.0,71.9,29.73,NE,34,3.0,11.0,74,0.00,,,0.00,Wunderground v.1.15,2013-08-30 23:16:00,
2013-08-30 18:20:00,80.7,72.0,29.73,NE,49,3.0,3.0,75,0.00,,,0.00,Wunderground v.1.15,2013-08-30 23:20:00,
2013-08-30 18:22:00,80.7,72.0,29.73,NNE,29,2.0,11.0,75,0.00,,,0.00,Wunderground v.1.15,2013-08-30 23:22:00,
2013-08-30 18:24:00,80.7,71.6,29.73,NE,56,2.0,11.0,74,0.00,,,0.00,Wunderground v.1.15,2013-08-30 23:24:00,
2013-08-30 18:26:00,80.7,71.6,29.73,ENE,58,2.0,11.0,74,0.00,,,0.00,Wunderground v.1.15,2013-08-30 23:26:00,
2013-08-30 18:30:00,80.5,71.4,29.73,NNW,335,3.0,11.0,74,0.00,,,0.00,Wunderground v.1.15,2013-08-30 23:30:00,
2013-08-30 18:32:00,80.5,71.8,29.73,NE,42,3.0,11.0,75,0.00,,,0.00,Wunderground v.1.15,2013-08-30 23:32:00,
2013-08-30 18:36:00,80.3,71.6,29.73,NE,53,3.0,11.0,75,0.00,,,0.00,Wunderground v.1.15,2013-08-30 23:36:00,
2013-08-30 18:38:00,80.3,71.6,29.73,ENE,58,3.0,11.0,75,0.00,,,0.00,Wunderground v.1.15,2013-08-30 23:38:00,
2013-08-30 18:40:00,80.3,72.0,29.73,NE,48,3.0,3.0,76,0.00,,,0.00,Wunderground v.1.15,2013-08-30 23:40:00,
2013-08-30 18:42:00,80.3,72.0,29.73,NE,48,2.0,11.0,76,0.00,,,0.00,Wunderground v.1.15,2013-08-30 23:42:00,
2013-08-30 18:44:00,80.3,72.0,29.73,NNE,18,2.0,11.0,76,0.00,,,0.00,Wunderground v.1.15,2013-08-30 23:44:00,
2013-08-30 18:46:00,80.3,72.0,29.73,NE,41,2.0,11.0,76,0.00,,,0.00,Wunderground v.1.15,2013-08-30 23:46:00,
2013-08-30 18:50:00,80.2,71.9,29.73,NE,56,2.0,11.0,76,0.00,,,0.00,Wunderground v.1.15,2013-08-30 23:50:00,
2013-08-30 18:52:00,80.0,71.4,29.73,NE,50,2.0,11.0,75,0.00,,,0.00,Wunderground v.1.15,2013-08-30 23:52:00,
2013-08-30 18:56:00,79.6,71.4,29.73,NE,44,3.0,11.0,76,0.00,,,0.00,Wunderground v.1.15,2013-08-30 23:56:00,
2013-08-30 18:58:00,79.5,71.3,29.73,NE,41,3.0,11.0,76,0.00,,,0.00,Wunderground v.1.15,2013-08-30 23:58:00,
2013-08-30 19:00:00,79.3,71.1,29.72,NE,56,4.0,11.0,76,0.00,,,0.00,Wunderground v.1.15,2013-08-31 00:00:00,
2013-08-30 19:02:00,79.1,70.9,29.72,North,4,4.0,11.0,76,0.00,,,0.00,Wunderground v.1.15,2013-08-31 00:02:00,
2013-08-30 19:04:00,78.9,70.7,29.72,NE,35,4.0,11.0,76,0.00,,,0.00,Wunderground v.1.15,2013-08-31 00:04:00,
2013-08-30 19:08:00,78.5,70.3,29.72,NE,44,4.0,11.0,76,0.00,,,0.00,Wunderground v.1.15,2013-08-31 00:08:00,
2013-08-30 19:10:00,78.4,70.6,29.72,NE,46,3.0,11.0,77,0.00,,,0.00,Wunderground v.1.15,2013-08-31 00:10:00,
2013-08-30 19:12:00,78.2,70.4,29.72,NE,41,3.0,11.0,77,0.00,,,0.00,Wunderground v.1.15,2013-08-31 00:12:00,
2013-08-30 19:16:00,77.9,70.9,29.73,NE,39,3.0,11.0,79,0.00,,,0.00,Wunderground v.1.15,2013-08-31 00:16:00,
2013-08-30 19:20:00,77.6,70.6,29.73,NE,47,3.0,3.0,79,0.00,,,0.00,Wunderground v.1.15,2013-08-31 00:20:00,
2013-08-30 19:22:00,77.5,70.8,29.72,ENE,60,2.0,11.0,80,0.00,,,0.00,Wunderground v.1.15,2013-08-31 00:22:00,
2013-08-30 19:24:00,77.4,70.7,29.73,NE,46,2.0,11.0,80,0.00,,,0.00,Wunderground v.1.15,2013-08-31 00:24:00,
2013-08-30 19:26:00,77.2,70.5,29.73,NE,50,2.0,11.0,80,0.00,,,0.00,Wunderground v.1.15,2013-08-31 00:26:00,
2013-08-30 19:28:00,77.1,70.5,29.72,NE,55,2.0,11.0,80,0.00,,,0.00,Wunderground v.1.15,2013-08-31 00:28:00,
2013-08-30 19:30:00,77.0,70.7,29.72,NE,52,2.0,11.0,81,0.00,,,0.00,Wunderground v.1.15,2013-08-31 00:30:00,
2013-08-30 19:34:00,76.5,70.2,29.72,NE,52,2.0,11.0,81,0.00,,,0.00,Wunderground v.1.15,2013-08-31 00:34:00,
2013-08-30 19:36:00,76.4,70.5,29.72,NE,41,2.0,11.0,82,0.00,,,0.00,Wunderground v.1.15,2013-08-31 00:36:00,
2013-08-30 19:38:00,76.2,70.3,29.72,NE,51,2.0,11.0,82,0.00,,,0.00,Wunderground v.1.15,2013-08-31 00:38:00,
2013-08-30 19:42:00,75.9,70.4,29.72,NE,51,1.0,11.0,83,0.00,,,0.00,Wunderground v.1.15,2013-08-31 00:42:00,
2013-08-30 19:44:00,75.7,70.2,29.72,NE,51,1.0,11.0,83,0.00,,,0.00,Wunderground v.1.15,2013-08-31 00:44:00,
2013-08-30 19:46:00,75.5,70.3,29.72,NE,51,1.0,11.0,84,0.00,,,0.00,Wunderground v.1.15,2013-08-31 00:46:00,
2013-08-30 19:48:00,75.3,70.1,29.72,NE,48,1.0,11.0,84,0.00,,,0.00,Wunderground v.1.15,2013-08-31 00:48:00,
2013-08-30 19:50:00,75.1,69.9,29.72,NE,49,1.0,11.0,84,0.00,,,0.00,Wunderground v.1.15,2013-08-31 00:50:00,
2013-08-30 19:52:00,75.0,70.2,29.72,NE,42,1.0,11.0,85,0.00,,,0.00,Wunderground v.1.15,2013-08-31 00:52:00,
2013-08-30 19:54:00,74.9,70.1,29.72,NE,49,1.0,11.0,85,0.00,,,0.00,Wunderground v.1.15,2013-08-31 00:54:00,
2013-08-30 19:58:00,74.6,69.8,29.72,NE,49,1.0,11.0,85,0.00,,,0.00,Wunderground v.1.15,2013-08-31 00:58:00,
2013-08-30 20:00:00,74.4,69.9,29.72,NE,39,1.0,11.0,86,0.00,,,0.00,Wunderground v.1.15,2013-08-31 01:00:00,
2013-08-30 20:04:00,74.3,69.8,29.72,NNE,32,1.0,11.0,86,0.00,,,0.00,Wunderground v.1.15,2013-08-31 01:04:00,
2013-08-30 20:06:00,74.2,69.7,29.72,NE,42,1.0,11.0,86,0.00,,,0.00,Wunderground v.1.15,2013-08-31 01:06:00,
2013-08-30 20:08:00,74.1,69.6,29.72,NE,38,1.0,11.0,86,0.00,,,0.00,Wunderground v.1.15,2013-08-31 01:08:00,
2013-08-30 20:12:00,73.8,69.3,29.72,NE,41,1.0,11.0,86,0.00,,,0.00,Wunderground v.1.15,2013-08-31 01:12:00,
2013-08-30 20:14:00,73.7,69.2,29.72,NE,43,1.0,11.0,86,0.00,,,0.00,Wunderground v.1.15,2013-08-31 01:14:00,
2013-08-30 20:16:00,73.5,69.4,29.72,NE,42,1.0,11.0,87,0.00,,,0.00,Wunderground v.1.15,2013-08-31 01:16:00,
2013-08-30 20:18:00,73.4,69.3,29.72,NE,43,1.0,11.0,87,0.00,,,0.00,Wunderground v.1.15,2013-08-31 01:18:00,
2013-08-30 20:22:00,73.1,69.3,29.72,NE,41,1.0,11.0,88,0.00,,,0.00,Wunderground v.1.15,2013-08-31 01:22:00,
2013-08-30 20:24:00,73.0,69.2,29.72,NE,51,1.0,11.0,88,0.00,,,0.00,Wunderground v.1.15,2013-08-31 01:24:00,
2013-08-30 20:26:00,73.0,69.2,29.73,NE,51,1.0,11.0,88,0.00,,,0.00,Wunderground v.1.15,2013-08-31 01:26:00,
2013-08-30 20:28:00,72.9,69.1,29.73,ENE,58,1.0,11.0,88,0.00,,,0.00,Wunderground v.1.15,2013-08-31 01:28:00,
2013-08-30 20:32:00,72.9,69.1,29.73,ENE,60,1.0,11.0,88,0.00,,,0.00,Wunderground v.1.15,2013-08-31 01:32:00,
2013-08-30 20:34:00,72.9,69.1,29.73,NE,51,2.0,11.0,88,0.00,,,0.00,Wunderground v.1.15,2013-08-31 01:34:00,
2013-08-30 20:36:00,73.0,69.2,29.73,NE,45,2.0,11.0,88,0.00,,,0.00,Wunderground v.1.15,2013-08-31 01:36:00,
2013-08-30 20:42:00,73.2,69.4,29.73,NE,52,2.0,11.0,88,0.00,,,0.00,Wunderground v.1.15,2013-08-31 01:42:00,
2013-08-30 20:46:00,73.0,69.2,29.73,NE,40,2.0,11.0,88,0.00,,,0.00,Wunderground v.1.15,2013-08-31 01:46:00,
2013-08-30 20:48:00,72.9,69.1,29.73,NE,51,1.0,11.0,88,0.00,,,0.00,Wunderground v.1.15,2013-08-31 01:48:00,
2013-08-30 20:52:00,72.8,69.0,29.73,NE,52,2.0,11.0,88,0.00,,,0.00,Wunderground v.1.15,2013-08-31 01:52:00,
2013-08-30 20:54:00,72.7,68.9,29.73,NE,44,2.0,11.0,88,0.00,,,0.00,Wunderground v.1.15,2013-08-31 01:54:00,
2013-08-30 20:56:00,72.6,68.8,29.73,ENE,58,2.0,11.0,88,0.00,,,0.00,Wunderground v.1.15,2013-08-31 01:56:00,
2013-08-30 20:58:00,72.5,68.7,29.73,ENE,58,2.0,11.0,88,0.00,,,0.00,Wunderground v.1.15,2013-08-31 01:58:00,
2013-08-30 21:02:00,72.4,68.6,29.73,ENE,63,3.0,11.0,88,0.00,,,0.00,Wunderground v.1.15,2013-08-31 02:02:00,
2013-08-30 21:04:00,72.3,68.5,29.73,NE,51,2.0,11.0,88,0.00,,,0.00,Wunderground v.1.15,2013-08-31 02:04:00,
2013-08-30 21:08:00,72.2,68.4,29.73,NE,47,2.0,11.0,88,0.00,,,0.00,Wunderground v.1.15,2013-08-31 02:08:00,
2013-08-30 21:10:00,72.1,68.3,29.73,ENE,60,2.0,11.0,88,0.00,,,0.00,Wunderground v.1.15,2013-08-31 02:10:00,
2013-08-30 21:14:00,72.0,68.2,29.74,NE,46,2.0,11.0,88,0.00,,,0.00,Wunderground v.1.15,2013-08-31 02:14:00,
2013-08-30 21:16:00,71.9,68.2,29.74,NE,50,2.0,11.0,88,0.00,,,0.00,Wunderground v.1.15,2013-08-31 02:16:00,
2013-08-30 21:18:00,71.8,68.1,29.74,NE,45,2.0,11.0,88,0.00,,,0.00,Wunderground v.1.15,2013-08-31 02:18:00,
2013-08-30 21:20:00,71.8,68.4,29.74,NE,43,2.0,2.0,89,0.00,,,0.00,Wunderground v.1.15,2013-08-31 02:20:00,
2013-08-30 21:22:00,71.6,68.2,29.74,NE,51,2.0,3.0,89,0.00,,,0.00,Wunderground v.1.15,2013-08-31 02:22:00,
2013-08-30 21:26:00,71.5,68.1,29.74,NE,44,2.0,11.0,89,0.00,,,0.00,Wunderground v.1.15,2013-08-31 02:26:00,
2013-08-30 21:28:00,71.4,68.0,29.74,NE,50,2.0,11.0,89,0.00,,,0.00,Wunderground v.1.15,2013-08-31 02:28:00,
2013-08-30 21:32:00,71.3,67.9,29.74,NE,45,2.0,11.0,89,0.00,,,0.00,Wunderground v.1.15,2013-08-31 02:32:00,
2013-08-30 21:36:00,71.3,67.9,29.74,NE,39,2.0,11.0,89,0.00,,,0.00,Wunderground v.1.15,2013-08-31 02:36:00,
2013-08-30 21:38:00,71.2,67.8,29.74,NE,50,2.0,11.0,89,0.00,,,0.00,Wunderground v.1.15,2013-08-31 02:38:00,
2013-08-30 21:40:00,71.2,67.8,29.74,NE,53,2.0,2.0,89,0.00,,,0.00,Wunderground v.1.15,2013-08-31 02:40:00,
2013-08-30 21:42:00,71.1,67.7,29.74,ENE,58,2.0,11.0,89,0.00,,,0.00,Wunderground v.1.15,2013-08-31 02:42:00,
2013-08-30 21:46:00,71.0,67.9,29.73,ENE,60,2.0,11.0,90,0.00,,,0.00,Wunderground v.1.15,2013-08-31 02:46:00,
2013-08-30 21:48:00,70.9,67.8,29.74,ENE,74,1.0,11.0,90,0.00,,,0.00,Wunderground v.1.15,2013-08-31 02:48:00,
2013-08-30 21:54:00,70.7,67.6,29.74,NE,51,1.0,11.0,90,0.00,,,0.00,Wunderground v.1.15,2013-08-31 02:54:00,
2013-08-30 21:56:00,70.6,67.5,29.74,NE,51,1.0,11.0,90,0.00,,,0.00,Wunderground v.1.15,2013-08-31 02:56:00,
2013-08-30 22:00:00,70.3,67.2,29.74,ENE,58,1.0,11.0,90,0.00,,,0.00,Wunderground v.1.15,2013-08-31 03:00:00,
2013-08-30 22:02:00,70.2,67.1,29.73,NE,50,1.0,11.0,90,0.00,,,0.00,Wunderground v.1.15,2013-08-31 03:02:00,
2013-08-30 22:06:00,69.9,66.8,29.73,NE,44,1.0,11.0,90,0.00,,,0.00,Wunderground v.1.15,2013-08-31 03:06:00,
2013-08-30 22:12:00,69.6,66.9,29.73,NE,46,1.0,11.0,91,0.00,,,0.00,Wunderground v.1.15,2013-08-31 03:12:00,
2013-08-30 22:14:00,69.6,66.9,29.74,NE,51,2.0,11.0,91,0.00,,,0.00,Wunderground v.1.15,2013-08-31 03:14:00,
2013-08-30 22:18:00,69.5,66.8,29.74,ENE,58,2.0,11.0,91,0.00,,,0.00,Wunderground v.1.15,2013-08-31 03:18:00,
2013-08-30 22:20:00,69.4,66.7,29.74,NE,41,2.0,2.0,91,0.00,,,0.00,Wunderground v.1.15,2013-08-31 03:20:00,
2013-08-30 22:24:00,69.2,66.5,29.74,NE,43,1.0,11.0,91,0.00,,,0.00,Wunderground v.1.15,2013-08-31 03:24:00,
2013-08-30 22:26:00,69.1,66.4,29.74,NE,43,1.0,11.0,91,0.00,,,0.00,Wunderground v.1.15,2013-08-31 03:26:00,
2013-08-30 22:28:00,69.0,66.3,29.74,NE,43,1.0,11.0,91,0.00,,,0.00,Wunderground v.1.15,2013-08-31 03:28:00,
2013-08-30 22:34:00,68.7,66.3,29.74,NE,49,1.0,11.0,92,0.00,,,0.00,Wunderground v.1.15,2013-08-31 03:34:00,
2013-08-30 22:36:00,68.7,66.3,29.74,NE,51,1.0,11.0,92,0.00,,,0.00,Wunderground v.1.15,2013-08-31 03:36:00,
2013-08-30 22:40:00,68.6,66.2,29.74,NE,51,1.0,11.0,92,0.00,,,0.00,Wunderground v.1.15,2013-08-31 03:40:00,
2013-08-30 22:42:00,68.6,66.5,29.74,NE,51,1.0,11.0,93,0.00,,,0.00,Wunderground v.1.15,2013-08-31 03:42:00,
2013-08-30 22:46:00,68.5,66.4,29.74,NE,51,1.0,11.0,93,0.00,,,0.00,Wunderground v.1.15,2013-08-31 03:46:00,
2013-08-30 22:50:00,68.5,66.4,29.74,NE,51,1.0,11.0,93,0.00,,,0.00,Wunderground v.1.15,2013-08-31 03:50:00,
2013-08-30 22:52:00,68.4,66.3,29.74,NE,51,1.0,11.0,93,0.00,,,0.00,Wunderground v.1.15,2013-08-31 03:52:00,
2013-08-30 22:54:00,68.4,66.3,29.74,NE,51,1.0,11.0,93,0.00,,,0.00,Wunderground v.1.15,2013-08-31 03:54:00,
2013-08-30 22:58:00,68.2,66.1,29.75,NE,51,1.0,11.0,93,0.00,,,0.00,Wunderground v.1.15,2013-08-31 03:58:00,
2013-08-30 23:02:00,67.9,65.8,29.75,NE,53,1.0,11.0,93,0.00,,,0.00,Wunderground v.1.15,2013-08-31 04:02:00,
2013-08-30 23:04:00,67.7,65.6,29.74,NE,52,1.0,11.0,93,0.00,,,0.00,Wunderground v.1.15,2013-08-31 04:04:00,
2013-08-30 23:08:00,67.5,65.4,29.74,NE,53,1.0,11.0,93,0.00,,,0.00,Wunderground v.1.15,2013-08-31 04:08:00,
2013-08-30 23:10:00,67.3,65.2,29.74,NE,52,1.0,11.0,93,0.00,,,0.00,Wunderground v.1.15,2013-08-31 04:10:00,
2013-08-30 23:12:00,67.3,65.5,29.74,NE,53,1.0,11.0,94,0.00,,,0.00,Wunderground v.1.15,2013-08-31 04:12:00,
2013-08-30 23:14:00,67.2,65.4,29.74,NE,53,1.0,11.0,94,0.00,,,0.00,Wunderground v.1.15,2013-08-31 04:14:00,
2013-08-30 23:16:00,67.1,65.3,29.74,NE,53,1.0,11.0,94,0.00,,,0.00,Wunderground v.1.15,2013-08-31 04:16:00,
2013-08-30 23:18:00,67.1,65.3,29.74,NE,53,1.0,11.0,94,0.00,,,0.00,Wunderground v.1.15,2013-08-31 04:18:00,
2013-08-30 23:20:00,67.0,65.2,29.74,NE,53,0.0,11.0,94,0.00,,,0.00,Wunderground v.1.15,2013-08-31 04:20:00,
2013-08-30 23:24:00,66.9,65.4,29.74,NE,53,0.0,11.0,95,0.00,,,0.00,Wunderground v.1.15,2013-08-31 04:24:00,
2013-08-30 23:28:00,66.7,65.2,29.74,NE,53,0.0,11.0,95,0.00,,,0.00,Wunderground v.1.15,2013-08-31 04:28:00,
2013-08-30 23:30:00,66.6,65.1,29.74,NE,52,0.0,11.0,95,0.00,,,0.00,Wunderground v.1.15,2013-08-31 04:30:00,
2013-08-30 23:32:00,66.5,65.0,29.75,NE,53,0.0,11.0,95,0.00,,,0.00,Wunderground v.1.15,2013-08-31 04:32:00,
2013-08-30 23:36:00,66.3,64.8,29.75,NE,53,0.0,11.0,95,0.00,,,0.00,Wunderground v.1.15,2013-08-31 04:36:00,
2013-08-30 23:38:00,66.2,64.7,29.75,NE,53,0.0,11.0,95,0.00,,,0.00,Wunderground v.1.15,2013-08-31 04:38:00,
2013-08-30 23:40:00,66.1,64.6,29.75,NE,53,0.0,11.0,95,0.00,,,0.00,Wunderground v.1.15,2013-08-31 04:40:00,
2013-08-30 23:44:00,65.8,64.3,29.75,NE,53,0.0,11.0,95,0.00,,,0.00,Wunderground v.1.15,2013-08-31 04:44:00,
2013-08-30 23:46:00,65.7,64.2,29.75,NE,53,0.0,11.0,95,0.00,,,0.00,Wunderground v.1.15,2013-08-31 04:46:00,
2013-08-30 23:48:00,65.5,64.0,29.75,NE,53,0.0,11.0,95,0.00,,,0.00,Wunderground v.1.15,2013-08-31 04:48:00,
2013-08-30 23:50:00,65.4,63.9,29.75,NE,53,0.0,11.0,95,0.00,,,0.00,Wunderground v.1.15,2013-08-31 04:50:00,
2013-08-30 23:54:00,65.2,63.7,29.75,NE,52,0.0,11.0,95,0.00,,,0.00,Wunderground v.1.15,2013-08-31 04:54:00,
2013-08-30 23:56:00,65.0,63.5,29.75,NE,53,0.0,11.0,95,0.00,,,0.00,Wunderground v.1.15,2013-08-31 04:56:00,
2013-08-30 23:58:00,64.9,63.4,29.75,NE,53,0.0,11.0,95,0.00,,,0.00,Wunderground v.1.15,2013-08-31 04:58:00,